Binghamton, NY

2:44 AM EST on November 20, 2019 (GMT -0500)
Binghamton Regional-Link

Weather History for KBGM - September, 2019

Change the Weather History Date:

Monday, September 23, 2019

  Actual Average Record
Temperature  
Mean Temperature 68 °F 57 °F  
Max Temperature 76 °F 66 °F 85 °F (1959)
Min Temperature 59 °F 48 °F 32 °F (1963)
Degree Days  
Heating Degree Days 0 9  
Month to date heating degree days 95 123  
Since 1 July heating degree days 132 186  
Cooling Degree Days 3 0  
Month to date cooling degree days 18 29  
Year to date cooling degree days 380 377  
Growing Degree Days 18 (Base 50)    
Moisture  
Dew Point 62 °F    
Average Humidity 73    
Maximum Humidity 87    
Minimum Humidity 58    
Precipitation  
Precipitation 0.06 in 0.13 in 1.24 in (2003)
Month to date precipitation 1.66 2.76  
Year to date precipitation 30.45 28.97  
Snow  
Snow 0.00 in 0.00 in T in (1989)
Month to date snowfall 0.0 0.0  
Since 1 July snowfall 0.0 0.0  
Since 1 September snowfall 0.0 0.0  
Snow Depth 0.00 in    
Sea Level Pressure  
Sea Level Pressure 29.83 in    
Wind  
Wind Speed 10 mph (WSW)    
Max Wind Speed 23 mph    
Max Gust Speed 31 mph    
Visibility 10 miles    
Events Rain    
T = Trace of Precipitation, MM = Missing Value Source: NWS Daily Summary

Daily Weather History Graph

Daily Weather History Graph

Search for Another Location

Airport or City:

Astronomy

Sep. 23, 2019 Rise Set
Actual Time 6:52 AM EDT 6:59 PM EDT
Civil Twilight 6:24 AM EDT 7:27 PM EDT
Nautical Twilight 5:51 AM EDT 8:00 PM EDT
Astronomical Twilight 5:17 AM EDT 8:33 PM EDT
Moon 12:26 AM EDT (9/23) 3:58 PM EDT (9/23)
Length of Visible Light 13h 03m
Length of Day
12h 07m
Waning Crescent, 33% of the Moon is Illuminated
Sep 23
Waning Crescent
Sep 28
New
Oct 5
First Quarter
Oct 13
Full
Oct 21
Last Quarter

Hourly Weather History & Observations

Time (EDT) Temp. Dew Point Humidity Pressure Visibility Wind Dir Wind Speed Gust Speed Precip Events Conditions
12:53 AM 71.1 °F 62.1 °F 73% 29.94 in 10.0 mi SSW 8.1 mph - N/A   Clear
1:53 AM 69.1 °F 62.1 °F 78% 29.93 in 10.0 mi SSW 5.8 mph - N/A   Clear
2:53 AM 69.1 °F 62.1 °F 78% 29.91 in 10.0 mi SW 8.1 mph - N/A   Partly Cloudy
3:53 AM 69.1 °F 62.1 °F 78% 29.89 in 10.0 mi SW 10.4 mph - N/A   Partly Cloudy
4:53 AM 69.1 °F 62.1 °F 78% 29.89 in 10.0 mi SW 10.4 mph - N/A   Clear
5:53 AM 68.0 °F 62.1 °F 81% 29.88 in 10.0 mi SW 9.2 mph - N/A   Scattered Clouds
6:53 AM 66.9 °F 62.1 °F 84% 29.88 in 10.0 mi SW 9.2 mph - N/A   Clear
7:53 AM 69.1 °F 61.0 °F 75% 29.87 in 10.0 mi SW 10.4 mph - N/A   Clear
8:53 AM 72.0 °F 60.1 °F 66% 29.85 in 10.0 mi SSW 12.7 mph - N/A   Clear
9:53 AM 75.0 °F 59.0 °F 57% 29.86 in 10.0 mi WSW 10.4 mph - N/A   Clear
10:53 AM 75.0 °F 60.1 °F 60% 29.85 in 10.0 mi WSW 11.5 mph - N/A   Clear
11:53 AM 73.0 °F 60.1 °F 64% 29.84 in 10.0 mi SW 8.1 mph - N/A   Scattered Clouds
12:53 PM 69.1 °F 63.0 °F 81% 29.83 in 10.0 mi WSW 9.2 mph - 0.01 in Rain Light Rain
1:53 PM 70.0 °F 63.0 °F 78% 29.81 in 3.0 mi SW 9.2 mph - 0.00 in Rain Light Rain
2:53 PM 71.1 °F 64.0 °F 78% 29.78 in 10.0 mi SW 9.2 mph - 0.01 in   Overcast
3:53 PM 73.0 °F 63.0 °F 71% 29.76 in 10.0 mi SW 9.2 mph 19.6 mph N/A   Overcast
4:53 PM 72.0 °F 63.0 °F 73% 29.74 in 10.0 mi SW 12.7 mph - N/A   Overcast
5:28 PM 71.1 °F 63.0 °F 75% 29.77 in 10.0 mi WSW 12.7 mph 25.3 mph 0.00 in   Overcast
5:53 PM 71.1 °F 63.0 °F 75% 29.75 in 10.0 mi WSW 16.1 mph 24.2 mph 0.00 in   Overcast
6:53 PM 69.1 °F 62.1 °F 78% 29.77 in 10.0 mi West 12.7 mph - 0.00 in   Overcast
7:01 PM 69.1 °F 62.1 °F 78% 29.80 in 10.0 mi West 12.7 mph - N/A   Overcast
7:38 PM 69.1 °F 62.1 °F 78% 29.80 in 10.0 mi West 13.8 mph - N/A   Overcast
7:53 PM 69.1 °F 62.1 °F 78% 29.78 in 10.0 mi West 13.8 mph - N/A   Overcast
8:53 PM 63.0 °F 61.0 °F 93% 29.79 in 10.0 mi WNW 8.1 mph - 0.03 in Rain Light Rain
9:53 PM 62.1 °F 61.0 °F 96% 29.80 in 10.0 mi West 4.6 mph - 0.00 in   Partly Cloudy
10:25 PM 62.1 °F 61.0 °F 96% 29.83 in 9.0 mi Calm Calm - N/A   Mostly Cloudy
10:53 PM 62.1 °F 60.1 °F 93% 29.81 in 10.0 mi NW 6.9 mph - 0.01 in Rain Light Rain
11:01 PM 61.0 °F 60.1 °F 97% 29.84 in 10.0 mi WNW 6.9 mph - 0.00 in   Mostly Cloudy
11:22 PM 61.0 °F 59.0 °F 93% 29.83 in 10.0 mi WNW 4.6 mph - 0.00 in   Scattered Clouds
11:53 PM 60.1 °F 57.9 °F 93% 29.81 in 10.0 mi West 6.9 mph - 0.00 in   Mostly Cloudy